Regional Weather Roundup
Issued by NWS

Home | Current Version | Previous Version | Graphics & Text | Print | Product List | Glossary On
Versions: 1 2 3 4 5 6 7 8 9 10 11 12 13 14 15 16 17 18 19 20 21 22 23 24 25 26 27 28 29 30 31 32 33 34 35 36 37 38 39 40 41 42 43 44 45 46 47 48 49 50
000
ASUS43 KLSX 300259
RWRMO

WEATHER SUMMARY FOR MISSOURI
NATIONAL WEATHER SERVICE SPRINGFIELD MO
1000 PM CDT FRI AUG 29 2014

NOTE: "FAIR" INDICATES FEW OR NO CLOUDS BELOW 12,000 FEET WITH NO
       SIGNIFICANT WEATHER AND/OR OBSTRUCTIONS TO VISIBILITY.
       CURRENT SKY AND/OR WEATHER CONDITIONS ARE NOT AVAILABLE FOR
       CHILLICOTHE AND FARMINGTON.

MOZ001>031-035>038-043-044-053-054-300400-
...NORTHERN AND WESTERN MISSOURI...

CITY           SKY/WX    TMP DP  RH WIND       PRES   REMARKS
KANSAS CTY INT MOCLDY    69  66  90 S7        29.83S
KANSAS C DTWN  MOCLDY    73  68  84 S7        29.83S
LEE`S SUMMIT   HVY RAIN  71  68  90 SW8       29.88R FOG
ST JOSEPH      PTCLDY    72  68  87 S9        29.80S
KIRKSVILLE     CLEAR     70  67  90 S7        29.86R

$$
MOZ066>068-077>081-088>096-101>105-300400-
...SOUTHWEST MISSOURI...

CITY           SKY/WX    TMP DP  RH WIND       PRES   REMARKS
SPRINGFIELD    CLEAR     74  67  78 S10       29.93R
JOPLIN         PTCLDY    78  65  63 S13       29.90R

$$
MOZ032>034-039>042-045>050-055>058-069>072-300400-
...CENTRAL MISSOURI...

CITY           SKY/WX    TMP DP  RH WIND       PRES   REMARKS
COLUMBIA       MOCLDY    74  72  93 S7        29.90R
JEFFERSON CITY CLOUDY    75  71  87 CALM      29.89R
ROLLA          CLOUDY    74  67  78 S12       29.92R
SEDALIA        CLEAR     74  68  81 S7        29.89R
OSAGE BEACH    MOCLDY    73  68  83 S7        29.92R

$$
MOZ051-052-059>065-300400-
...EAST CENTRAL MISSOURI...

CITY           SKY/WX    TMP DP  RH WIND       PRES   REMARKS
ST LOUIS INTL  CLOUDY    83  68  60 S10       29.90S
SPIRIT OF STL  CLOUDY    77  69  76 S3        29.89R
ST CHARLES     CLOUDY    75  72  90 CALM      29.89R

$$
MOZ072>076-082>087-097>100-106>115-300400-
...SOUTH CENTRAL AND SOUTHEAST MISSOURI...

CITY           SKY/WX    TMP DP  RH WIND       PRES   REMARKS
CAPE GIRARDEAU RAIN      75  69  81 W13G29    30.00R
FARMINGTON     CLOUDY    72  68  88 SW10      29.99R
POPLAR BLUFF   RAIN      72  68  87 SE8       30.00S
WEST PLAINS    CLOUDY    73  68  84 S6        29.99R

$$


USA.gov is the U.S. government's official web portal to all federal, state and local government web resources and services.